User: anonymous   Login
Location: Unspecified
(0.0000°N, 0.0000°E)
Time: 14:42:08
(UTC+00:00)
Language:

Ajisai (EGP) Rocket - Orbit

View from above orbital plane
View from above orbital plane
View from above satellite
View from above satellite

Ground track
Ground track

The orbit is defined by the following mean orbital elements,

1 16910U          26088.00952218 +.00000000 +00000-0 +23407-3 0 00000
2 16910  50.0047 297.8346 0072977  72.1127  91.8813 12.32655336    02
Epoch (UTC): 29 March 2026 00:13:42
Eccentricity: 0.0072977
inclination: 50.0047°
perigee height: 1480 km
apogee height: 1596 km
right ascension of ascending node: 297.8346°
argument of perigee: 72.1127°
revolutions per day: 12.32655336
mean anomaly at epoch: 91.8813°

The dashed part of the orbit path shows where the satellite is in the earth's shadow,  

DLR